Theta_e
332 331 326 321 308 308 307 311 316 313 315 318 317 315 314 316 317 322 347 358 360 359 369 366 366 367 367 365 364 362 361 361 362 363 362 361 362 363 363 364 364 364 362 362 361 358 357 357 356
327 324 323 317 305 303 306 311 309 314 316 317 317 316 315 321 334 335 346 357 360 363 370 366 366 367 367 365 363 362 362 362 363 362 362 362 362 363 364 364 364 363 361 361 360 358 356 356 356
325 324 318 311 307 302 305 310 311 313 314 314 314 316 315 324 334 339 350 357 360 365 368 368 366 366 366 365 363 362 362 362 363 362 362 362 363 363 363 364 364 362 361 359 358 356 355 355 353
321 319 316 306 304 309 309 311 312 311 313 314 314 312 318 336 332 340 351 361 361 364 366 363 365 366 366 365 363 362 362 362 362 362 362 363 363 363 364 364 364 363 359 357 356 355 354 354 353
319 316 308 305 305 309 311 312 312 311 312 312 313 311 313 330 335 339 349 361 361 364 364 364 365 365 365 365 364 363 363 362 362 362 363 363 362 362 363 363 363 362 358 356 355 354 353 352 351
312 312 304 303 306 310 312 313 312 311 313 313 312 312 314 330 331 337 345 356 362 362 364 366 363 364 364 364 364 363 362 362 362 362 362 362 362 362 362 363 362 361 359 356 354 353 351 351 351
308 309 304 305 305 308 310 314 311 311 311 311 314 309 316 319 330 336 343 353 362 362 363 365 361 363 364 363 363 362 362 361 361 361 361 361 362 362 362 362 362 360 359 356 353 351 350 350 350
309 308 304 306 304 305 311 311 312 309 308 315 314 307 311 318 324 332 337 346 361 360 362 362 360 358 359 363 362 362 362 361 361 361 361 361 361 362 362 360 360 359 356 355 353 351 350 349 350
309 302 301 303 303 305 311 307 311 313 310 311 313 312 315 318 318 321 327 333 351 357 362 359 357 356 354 354 361 361 362 361 361 361 361 358 352 356 359 357 359 357 354 353 351 350 349 348 348
306 303 303 306 306 305 307 307 308 308 308 309 311 314 315 316 317 317 321 322 339 355 357 360 358 356 353 351 358 358 359 360 359 358 358 352 352 352 351 357 359 356 354 352 351 350 349 347 338
307 302 306 306 307 307 306 306 309 306 305 309 309 312 314 315 317 316 319 320 325 348 355 359 361 357 354 351 354 348 350 351 354 355 358 356 351 351 349 355 354 352 353 347 347 346 342 338 340
303 306 306 307 308 307 305 308 306 307 308 311 312 314 314 314 314 316 317 320 321 333 354 355 361 362 361 353 353 349 348 348 348 351 359 355 351 355 352 350 350 349 348 347 346 342 343 342 341
306 307 308 309 309 308 309 306 306 307 311 312 312 312 312 314 315 317 319 321 321 323 344 356 356 364 363 363 355 352 352 348 349 351 355 351 350 355 351 351 347 347 347 345 345 343 341 340 342
309 307 307 308 309 309 306 306 307 309 312 311 311 310 311 313 315 316 317 318 322 324 330 353 358 363 361 362 361 357 357 352 350 350 352 354 352 357 348 349 346 347 345 345 343 340 341 339 341
308 304 307 308 309 306 308 303 304 310 311 310 311 311 311 313 315 315 318 319 320 325 336 339 358 362 364 362 363 358 355 353 350 350 358 355 357 359 356 347 348 346 348 344 342 341 343 340 344
305 305 300 306 307 308 306 299 306 310 310 308 310 312 313 314 315 317 318 320 322 323 337 344 338 359 363 364 363 357 355 353 352 350 351 352 352 358 358 348 347 346 348 344 340 340 340 343 345
303 297 298 300 305 304 303 299 305 309 308 308 310 311 312 313 315 318 319 320 322 324 331 342 347 352 363 361 365 362 362 355 352 351 350 355 350 350 354 345 345 353 345 343 340 341 345 344 346
295 296 297 297 302 303 300 300 304 307 307 307 309 310 311 312 314 317 319 320 322 323 333 340 344 356 363 361 361 359 356 355 353 351 350 357 351 350 355 345 350 350 345 342 342 352 348 347 346
299 297 296 299 303 301 300 301 303 306 307 306 307 309 310 312 315 317 318 320 321 325 332 338 342 353 359 359 357 350 349 353 353 352 357 356 352 351 358 343 351 354 347 350 358 352 355 346 350
299 297 297 300 302 301 300 299 302 304 305 307 308 308 310 312 313 316 317 319 321 329 332 337 341 347 355 359 360 360 351 354 355 353 357 357 356 357 355 352 352 358 345 359 359 360 347 348 349
298 297 297 296 299 301 300 298 300 304 306 308 310 311 312 311 312 314 316 318 320 325 331 332 342 347 350 359 360 360 354 359 351 354 351 353 356 356 357 356 353 359 355 349 359 357 356 342 345
294 299 298 297 295 291 299 289 298 302 303 306 307 309 310 312 313 314 315 317 320 320 324 331 342 348 353 359 357 352 346 349 349 350 352 351 356 354 356 356 357 358 352 358 355 354 354 354 343
296 300 298 297 296 295 295 292 297 302 298 303 305 309 311 312 313 313 314 316 318 322 320 331 343 348 353 355 355 354 350 354 355 352 351 353 355 356 349 355 358 359 354 360 359 357 356 349 347
302 299 298 298 296 289 295 292 294 298 300 303 307 308 309 312 313 314 316 316 317 319 322 327 338 347 351 353 353 353 351 347 346 346 345 349 348 349 353 351 358 361 359 356 354 357 355 355 349
300 295 289 287 289 287 295 292 295 302 304 304 305 307 310 312 313 313 314 315 317 319 322 325 334 343 346 346 351 353 353 354 353 347 352 349 346 345 352 354 358 355 359 354 356 354 351 347 343
296 295 288 281 284 287 295 290 294 304 306 306 307 309 310 311 313 314 316 316 317 318 321 322 325 334 340 343 348 352 354 348 349 354 345 351 347 348 355 355 357 355 355 353 353 347 343 341 337
296 294 298 290 292 288 292 296 299 303 302 306 306 308 309 310 313 314 316 318 320 321 322 323 327 327 336 345 347 348 352 352 351 354 356 351 352 350 352 355 356 354 351 349 349 340 337 335 335
299 301 291 293 283 282 288 291 292 297 298 304 304 306 309 311 312 313 316 319 321 323 324 324 325 325 329 338 341 343 346 349 351 354 353 351 353 353 352 353 348 348 344 343 343 337 334 331 328
295 294 293 293 292 285 284 289 299 298 302 303 305 306 308 309 310 312 315 317 319 320 321 325 325 324 327 335 340 342 345 348 349 349 343 349 351 350 348 344 342 340 339 336 338 331 328 323 323
298 295 296 288 288 290 288 288 302 303 304 305 306 307 308 309 312 312 313 315 315 317 319 321 326 327 324 330 335 342 342 347 347 345 345 344 345 345 337 336 331 330 329 326 323 322 321 317 318
Wind_Speed
19 15 8 7 9 9 17 19 3 1 6 8 4 7 12 6 11 7 6 14 9 5 19 15 11 11 14 16 18 18 17 16 18 17 16 17 16 15 13 13 12 12 12 13 12 12 11 11 10
13 8 8 9 10 14 13 21 6 8 11 7 5 5 7 13 11 3 11 16 7 4 16 17 12 13 13 16 18 18 17 17 17 18 16 16 15 15 14 13 12 12 11 11 11 10 10 9 9
14 9 10 7 14 15 15 8 3 5 0 6 4 2 6 6 10 8 14 14 3 6 15 14 14 13 14 15 17 19 17 17 17 17 17 16 16 15 14 12 11 12 12 10 10 10 9 8 6
7 7 8 11 19 15 13 8 6 7 7 4 3 9 4 6 5 7 9 11 2 10 14 19 15 14 15 15 16 19 18 17 17 18 17 16 15 14 13 12 11 10 11 10 10 9 9 8 6
9 9 13 16 19 20 4 6 0 11 8 5 4 9 2 12 3 8 8 8 7 8 18 17 16 13 15 16 17 18 18 18 18 17 17 16 15 14 13 13 12 11 11 11 10 9 9 8 6
9 6 13 15 20 17 4 1 8 10 9 7 10 10 6 6 3 7 7 8 3 6 13 15 14 13 14 15 16 18 19 18 17 18 17 16 15 15 14 13 13 12 12 11 11 10 9 8 7
12 12 16 19 19 18 4 3 6 12 13 8 11 12 9 6 9 3 3 8 2 7 10 12 15 14 13 13 14 16 18 17 17 17 16 16 16 14 13 12 12 12 12 11 12 11 10 8 7
8 10 20 18 13 18 6 5 6 10 14 13 8 8 10 8 7 8 4 6 4 8 11 9 15 16 15 14 13 15 16 16 16 16 16 15 14 14 13 11 11 12 12 11 11 10 8 7 7
7 10 13 14 12 8 11 5 9 12 15 12 17 19 18 17 4 6 11 4 11 4 11 11 16 17 16 16 13 15 16 16 15 15 14 13 12 13 14 12 14 11 10 9 9 8 7 7 8
9 11 12 13 12 12 16 17 16 16 18 19 17 17 17 18 15 10 8 12 7 9 6 13 12 17 17 14 15 15 14 13 13 14 14 12 13 12 13 13 14 12 11 10 10 9 9 9 9
7 12 15 12 9 13 17 18 18 19 21 19 18 18 13 13 14 11 12 11 10 14 7 10 14 9 17 15 12 9 10 10 10 15 14 12 10 10 10 9 8 9 11 8 9 9 8 11 11
10 4 8 12 12 15 18 20 22 22 22 20 20 20 17 17 16 11 13 13 9 9 14 11 14 10 15 9 12 12 11 11 10 13 15 10 8 10 9 8 10 10 10 10 10 8 10 11 7
13 11 12 16 17 18 17 19 20 22 20 20 21 22 22 19 19 16 15 11 12 12 12 16 11 14 11 9 11 12 11 11 12 13 14 12 11 9 9 9 10 10 10 10 7 7 6 6 8
12 15 19 20 19 18 16 18 20 22 20 19 19 21 21 22 19 19 17 16 13 12 13 15 19 15 17 11 14 11 10 13 12 12 13 14 11 9 11 8 9 8 8 6 7 7 6 8 8
16 22 21 22 20 8 16 21 22 22 22 15 19 15 17 19 20 20 17 16 15 12 13 14 15 21 17 16 11 11 12 13 12 12 14 14 12 11 9 9 8 7 6 7 6 6 6 9 8
23 21 18 15 10 14 18 23 20 21 22 21 18 19 20 22 22 20 18 17 15 15 15 14 13 17 19 16 11 12 12 12 12 12 12 16 14 12 9 8 9 8 7 7 7 6 8 7 7
18 17 24 26 22 23 22 28 26 25 24 23 22 20 20 20 20 20 19 18 15 14 13 15 15 16 18 16 12 13 12 12 12 11 12 15 16 14 11 10 9 7 8 8 8 8 8 7 7
23 22 22 25 23 24 27 29 25 25 27 26 24 24 24 24 24 22 21 19 18 16 13 12 13 16 15 12 11 10 7 12 12 12 12 16 13 15 11 9 8 8 9 8 8 7 7 8 6
18 21 26 26 24 22 24 27 27 24 26 27 24 24 25 25 23 22 20 18 19 15 12 14 14 13 12 11 12 10 9 10 12 12 14 16 15 15 12 10 9 9 10 8 7 6 7 7 2
21 25 26 25 19 20 25 31 28 27 27 27 26 26 25 25 23 22 22 19 19 15 13 13 14 15 13 11 11 10 11 12 11 12 12 14 15 14 14 11 11 11 10 8 8 7 7 7 4
20 22 21 25 26 25 26 29 23 25 21 15 23 20 21 24 23 23 23 21 21 18 15 15 15 14 14 15 11 9 9 8 6 5 12 12 15 14 13 13 10 11 9 11 8 8 8 8 6
20 21 23 24 24 22 25 23 25 21 20 16 17 20 20 20 23 23 23 24 22 20 18 16 15 15 14 14 12 15 10 12 12 10 12 13 14 14 13 12 10 9 9 7 10 8 8 7 6
22 19 24 28 26 25 27 17 13 17 16 12 20 6 8 14 19 22 24 24 23 21 19 15 14 14 14 14 15 12 13 10 9 9 11 14 13 14 17 14 12 11 9 8 10 7 8 7 6
22 25 24 25 23 17 24 9 11 13 2 12 10 5 2 12 14 16 21 23 20 21 21 15 16 13 14 15 16 17 18 12 12 12 8 12 13 12 14 15 12 10 9 6 8 7 8 5 2
20 21 13 15 6 14 14 16 16 13 11 12 11 11 13 3 10 6 11 16 16 20 18 17 15 14 13 15 15 17 17 16 14 14 11 12 13 12 13 14 12 10 10 7 7 7 7 5 5
17 16 9 13 16 21 26 20 9 1 10 6 4 8 10 4 8 6 6 11 12 14 15 16 13 13 15 14 14 14 16 12 12 11 10 11 11 12 14 13 12 12 10 9 8 7 6 8 7
22 16 15 11 20 19 19 15 12 11 14 13 9 5 7 3 7 5 6 9 12 8 12 13 14 12 13 14 11 11 13 15 13 15 13 12 9 12 15 15 14 12 10 11 9 8 8 9 7
20 17 8 7 8 15 17 21 7 9 6 14 3 11 1 3 5 5 3 7 6 7 6 8 8 11 14 15 14 12 11 14 14 12 14 10 7 11 16 14 13 13 12 12 12 10 9 10 7
17 11 1 4 11 7 15 9 11 21 15 19 20 6 26 5 9 6 1 4 2 4 7 4 9 12 14 14 14 13 14 13 12 13 10 10 11 11 13 13 14 14 14 14 12 12 13 13 11
16 12 11 6 10 13 15 19 21 9 21 19 18 18 17 17 10 11 11 6 5 3 5 5 6 6 13 14 14 14 12 13 12 13 11 9 11 11 11 13 15 15 15 14 15 13 12 12 14
Wind_Direction
281 236 249 251 241 227 253 239 220 197 206 59 0 289 4 329 5 44 47 26 15 294 139 159 135 142 148 151 145 145 148 147 143 142 146 144 144 139 132 126 123 128 130 128 121 119 118 116 114
293 269 236 270 250 250 235 234 174 248 31 332 272 282 240 100 51 355 19 350 33 133 144 165 144 144 152 153 147 144 149 149 147 145 149 147 145 143 136 131 129 131 129 126 123 121 121 121 117
256 254 268 234 235 255 271 35 222 74 184 294 302 1 13 46 49 2 16 326 47 149 143 145 142 147 153 157 152 144 150 150 150 148 150 151 148 146 138 135 134 136 133 127 124 122 121 122 120
248 208 245 255 261 253 285 72 344 275 227 245 357 276 154 74 2 20 6 333 249 155 153 130 139 152 152 156 154 146 149 150 153 151 152 151 150 146 141 136 135 133 129 128 127 126 127 132 135
235 264 251 244 251 265 140 311 296 277 284 280 4 275 202 131 17 12 29 354 322 113 122 141 139 153 153 157 155 146 147 151 154 152 151 152 150 148 144 139 137 136 135 133 133 134 139 144 163
244 255 253 252 249 244 170 213 253 262 262 285 283 281 297 85 65 3 19 37 17 106 142 139 138 151 154 156 153 148 148 152 155 152 152 151 152 152 147 144 141 141 141 143 143 146 151 165 182
258 263 258 274 280 279 82 90 269 272 273 287 319 294 278 158 58 350 339 85 293 138 127 157 163 157 150 151 151 150 149 151 154 152 153 152 151 150 148 145 145 145 146 152 153 159 166 179 197
295 281 271 267 264 273 288 119 281 273 270 304 310 257 229 55 44 316 308 112 126 151 144 176 174 173 170 161 150 149 148 150 150 150 151 149 147 148 147 143 150 150 153 159 161 167 178 188 209
264 255 258 270 270 296 291 298 268 302 276 265 269 270 281 305 307 288 292 227 128 274 165 199 179 175 180 168 159 148 148 148 147 149 149 149 176 175 161 185 144 153 159 160 162 176 192 201 222
266 283 300 17 339 314 302 296 296 289 281 272 268 248 259 260 261 248 255 281 168 154 252 187 217 174 184 167 159 178 168 173 179 177 172 187 183 187 187 143 147 157 162 170 174 190 200 214 208
328 282 350 317 311 311 298 286 283 277 272 275 275 283 277 286 272 256 251 235 268 161 179 243 207 170 191 174 163 183 176 179 187 185 179 206 180 186 193 155 170 171 179 187 189 194 216 212 244
291 249 288 301 301 288 277 284 281 279 280 282 282 284 278 271 270 247 254 257 249 226 173 216 224 194 209 168 171 182 181 179 183 187 182 202 190 174 199 184 189 197 177 210 195 196 218 233 250
253 290 297 286 289 277 280 277 279 279 282 280 273 263 261 259 263 265 252 235 264 282 193 187 230 212 218 181 182 188 188 181 186 180 184 197 193 173 200 195 195 192 189 207 193 236 194 226 229
308 294 292 281 274 276 281 271 281 282 275 268 270 261 259 257 261 257 249 246 223 227 261 196 192 211 216 218 189 191 193 179 186 182 180 202 203 166 198 201 215 186 213 198 213 212 197 226 226
299 288 278 274 264 257 260 260 272 271 261 263 268 265 257 255 256 254 256 250 250 222 221 254 209 190 212 216 197 195 190 185 190 184 173 201 205 162 214 205 206 195 194 217 219 187 212 219 230
271 265 269 273 279 273 288 280 273 271 280 275 245 258 259 253 250 248 248 246 245 247 194 211 240 201 203 213 207 196 195 200 193 187 174 193 193 172 215 195 202 191 196 196 211 196 207 226 225
258 298 312 305 303 304 290 286 286 285 280 267 262 259 256 257 251 247 251 253 245 237 239 192 224 235 200 206 212 216 196 205 193 192 177 183 191 184 197 203 190 175 200 203 202 206 216 207 265
318 303 299 295 300 299 287 283 286 284 279 270 264 259 255 253 252 248 232 242 243 226 218 219 205 230 197 201 206 220 219 199 196 194 188 168 199 192 191 204 181 180 214 203 207 213 208 252 200
297 288 290 290 296 302 292 295 292 289 282 276 265 259 256 252 251 244 240 236 231 228 220 200 212 217 203 208 203 208 214 215 204 193 187 166 201 191 178 199 178 196 217 205 190 198 242 221 188
288 287 287 299 301 315 296 284 286 280 270 258 257 259 257 251 245 237 243 226 236 229 206 206 211 209 211 203 207 201 199 214 206 193 179 173 197 185 177 202 178 190 209 186 177 214 209 231 174
298 300 310 311 311 288 279 280 295 305 294 273 275 256 249 252 242 235 232 230 230 224 196 212 206 207 208 208 206 206 210 224 246 185 175 190 194 187 187 202 184 176 240 178 177 201 225 207 186
307 320 314 301 303 296 302 292 286 277 271 250 243 248 252 238 235 240 226 226 224 225 214 203 206 207 200 213 200 199 199 199 203 205 185 185 197 185 185 194 197 184 194 202 166 203 224 257 196
304 304 299 288 281 289 280 272 295 307 5 341 333 313 277 255 237 227 228 227 216 217 224 191 196 203 215 195 196 204 199 206 204 213 173 185 190 186 188 186 195 189 215 174 163 188 219 201 287
294 289 290 296 281 269 274 314 286 321 300 240 259 225 243 290 267 227 217 224 210 217 211 199 188 197 203 199 199 199 203 196 210 220 183 186 183 187 188 188 186 193 207 169 164 180 198 274 218
320 313 308 296 274 281 285 309 309 351 314 311 308 312 309 285 282 232 241 219 225 217 215 213 189 185 201 214 200 208 209 212 213 209 200 188 186 189 180 189 185 181 187 164 142 160 155 141 131
311 309 306 293 300 310 308 283 286 24 39 357 312 308 261 271 291 342 292 228 237 227 230 225 227 193 197 207 208 206 212 211 213 219 220 205 195 180 168 184 171 177 167 139 131 130 149 125 119
288 276 284 279 280 270 270 272 286 32 11 330 354 360 4 239 32 328 304 352 340 330 228 236 232 233 205 198 197 223 219 226 204 213 222 245 188 166 161 179 158 166 140 127 132 122 119 114 114
285 304 296 271 281 300 297 320 36 34 258 255 48 314 270 268 204 145 323 85 326 323 310 291 286 236 238 208 193 204 220 223 223 214 214 207 231 153 161 161 134 132 127 132 127 120 127 109 101
308 257 206 301 287 287 292 274 2 328 359 358 341 81 302 234 302 312 230 72 346 298 302 297 213 235 241 221 196 196 208 202 215 206 197 182 186 157 170 131 133 124 127 122 114 109 112 107 98
267 302 318 296 302 292 293 280 284 305 330 328 312 303 316 319 273 285 278 183 205 303 315 289 303 251 241 227 216 190 213 187 199 200 192 190 152 145 122 114 112 118 118 112 103 109 116 108 107